Simultaneous Nadir Overpasses (SNOs) Predictions

Prediction of SNOs between METOP-A and NOAA-19 Satellite Orbit:

Table of predicted SNOs for the next 14.0 days since TLE Epoch: 12/19/2020
Index Date (METOP-A) Time (METOP-A) Lat,Lon (METOP-A) SZA (METOP-A ) Date (NOAA-19) Time (NOAA-19) Lat,Lon (NOAA-19) SZA (NOAA-19 ) Distance(km) Time Diff (sec)
1 12/29/2020 14:15:59 -80.80, 158.50 75.90 12/29/2020 14:14:44 -80.81, 158.46 75.89 1.56 75
2 12/29/2020 15:06:39 80.80, -34.09 104.12 12/29/2020 15:05:45 80.80, -33.93 104.11 2.75 54
3 12/29/2020 15:57:20 -80.81, 133.37 75.88 12/29/2020 15:56:43 -80.80, 133.49 75.89 2.56 37
4 12/29/2020 16:48:01 80.79, -59.57 104.10 12/29/2020 16:47:46 80.81, -59.63 104.11 1.86 15
5 12/29/2020 17:38:42 -80.80, 107.89 75.90 12/29/2020 17:38:44 -80.81, 107.79 75.90 1.70 2
6 12/29/2020 18:29:22 80.81, -84.70 104.11 12/29/2020 18:29:45 80.80, -84.59 104.11 2.27 23
7 12/29/2020 19:20:04 -80.79, 82.41 75.92 12/29/2020 19:20:44 -80.80, 82.46 75.90 1.34 40



Historial Predications of SNOs between METOP-A and NOAA-19
